{"data":{"norad_id":49157,"intl_designator":"2021-082AD","name":"STARLINK-3051","alt_names":[],"object_type":"PAYLOAD","status":"ACTIVE","operator":null,"country":"US","launch_date":"2021-09-14","launch_site_code":"AFWTR","launch_vehicle":null,"mission":null,"orbit_class":"UNKNOWN","rcs_meters":null,"size_class":null,"mass_kg":null,"dimensions":null,"purposes":["comms"],"wikipedia_slug":null,"has_3d_model":false,"image_url":null,"decayed_at":null,"tle_current":{"epoch":"2026-05-25T02:39:31.122432Z","epoch_age_seconds":61420,"freshness":"FRESH","line1":"1 49157U 21082AD  26145.11077688  .00004711  00000+0  33493-3 0  9992","line2":"2 49157  69.9978  77.0725 0003580 197.1065 162.9977 15.05349043259134","mean_motion":15.05349043,"eccentricity":0.000358,"inclination_deg":69.9978,"raan_deg":77.0725,"arg_perigee_deg":197.1065,"mean_anomaly_deg":162.9977,"bstar":0.00033493,"rev_number":25913,"period_min":95.658877699901,"perigee_km":547.95403501356,"apogee_km":552.9148921815,"semimajor_km":6928.5714635975,"source":"CELESTRAK","updated_at":"2026-05-25T13:38:16.789615Z"}}}